Regional Weather Roundup
Issued by NWS Midland/Odessa, TX

Skip options and go directly to product.
Home | Oldest Version | Previous Version | Current Version | All | Graphics & Text | Save Text | Print | Product List | Glossary On

Skip product version selection by date and time.   
155
ASUS44 KMAF 260410
RWRMAF
MIDLAND AREA WEATHER ROUNDUP
NATIONAL WEATHER SERVICE MIDLAND TX
1000 PM CST SUN JAN 25 2015

...IN SOUTHWEST TEXAS AND SOUTHEAST NEW MEXICO...

CITY           SKY/WX    TMP DP  RH WIND       PRES   REMARKS
ALPINE         PTCLDY    34  30  84 SW5       30.36S WCI  30
ANDREWS        FAIR      44  28  53 SW6       30.28F
ARTESIA        CLEAR     39  30  70 SW9       30.29S WCI  33
BIG SPRING     CLEAR     43  30  59 CALM      30.29S
CARLSBAD       PTCLDY    37  29  72 SW9       30.28R WCI  30
DRYDEN           N/A     46  34  62 W6        30.25S
FORT STOCKTON  CLEAR     44  32  62 S7        30.29R
GUAD PASS      NOT AVBL
HOBBS          PTCLDY    37  28  70 W7        30.31S WCI  32
MARFA          PTCLDY    30  27  86 N8        30.32S WCI  23
MIDLAND AIRPK  CLEAR     47  31  55 W3        30.28S
MIDLAND INTL   PTCLDY    42  32  67 W7        30.28S WCI  38
ODESSA         PTCLDY    46  27  47 W3        30.29S
PECOS          FAIR      39  32  75 SW3       30.29S
PRESIDIO       FAIR      53  32  43 N8        30.27R
SEMINOLE       CLEAR     40  31  69 W8        30.29F WCI  35
SNYDER         CLEAR    N/A N/A N/A CALM      30.27R
WINK           PTCLDY    41  26  55 N3        30.28S
$$
...OTHER STATIONS IN TEXAS...

CITY           SKY/WX    TMP DP  RH WIND       PRES   REMARKS
ABILENE        CLEAR     46  31  55 SW7       30.23S
AMARILLO       CLEAR     34  29  82 SW6       30.24R WCI  29
AUSTIN         CLEAR     50  33  52 W5        30.19R
BROWNSVILLE    CLOUDY    58  50  75 CALM      30.21R
CORPUS CHRISTI CLOUDY    51  44  77 NW7       30.19R
DALLAS FTW     CLEAR     50  24  36 NW8       30.16R
DEL RIO        PTCLDY    50  38  63 W3        30.24R
EL PASO        MOCLDY    47  28  47 NE5       30.27S
HOUSTON INT    PTCLDY    58  28  32 NW10      30.13R
LUBBOCK        CLEAR     40  32  73 W5        30.26R WCI  37
SAN ANGELO     PTCLDY    46  34  62 CALM      30.25S
SAN ANTONIO    MOCLDY    50  37  61 W9        30.21R
WACO           CLEAR     42  31  64 W9        30.19R WCI  37
WICHITA FALLS  NOT AVBL
$$
...OTHER LOCATIONS IN NEW MEXICO...

CITY           SKY/WX    TMP DP  RH WIND       PRES   REMARKS
ALAMAGORDO     PTCLDY    37  25  60 E3        30.31R
ALBUQUERQUE    PTCLDY    42  24  49 CALM      30.29R
CANNON AFB     CLEAR     42  29  61 W10       30.27S WCI  35
CLOVIS         CLEAR     36  28  75 W9        30.27R WCI  29
HOLLOMAN AFB   PTCLDY    38  29  68 CALM      30.29R
ROSWELL        CLEAR     37  30  75 SW9       30.27F WCI  30
RUIDOSO        CLEAR     37  19  48 W7        30.32F WCI  32
SANTA FE       PTCLDY    29  23  78 N10       30.28R WCI  20
TRUTH OR CONSE CLEAR     47  24  40 CALM      30.30R
TUCUMCARI      PTCLDY    36  30  79 NW3       30.26R
$$

USA.gov is the U.S. government's official web portal to all federal, state and local government web resources and services.